Home   Weather   Koror   Past weeks

Flag for Palau Past Weather in Koror, Palau — Yesterday and Last 2 Weeks

Now
81 °F

Mostly cloudy.


Feels Like: 87 °F
Forecast: 81 / 88 °F
Wind: 9 mph from West

Location: Koror / Palau Island

Current Time: Oct 1, 2016 at 8:50:53 AM

Latest Report: Oct 1, 2016 at 7:50 AM


Visibility: 14 mi

Pressure: 29.80 "Hg

Humidity: 89%

Dew Point: 77 °F

Location of KororLocation

Past Weather in Koror — Graph

°F

Koror Temperature Yesterday

Maximum temperature yesterday: 88 °F (at 12:50 PM)
Minimum temperature yesterday: 77 °F (at 4:50 AM)
Average temperature yesterday: 81 °F

High & Low Weather Summary for the Past Weeks

 TemperatureHumidityPressure
High90 °F (Sep 28, 11:50 AM)100% (Sep 17, 2:50 AM)29.93 "Hg (Sep 17, 2:50 AM)
Low75 °F (Sep 17, 7:50 AM)67% (Sep 28, 1:50 PM)29.68 "Hg (Sep 24, 2:54 PM)
Average81 °F88%29.79 "Hg
* Reported Sep 16 6:50 AM — Oct 1 6:50 AM, Koror, Weather by CustomWeather, © 2016

Note: Actual official high and low records may vary slightly from our data, if they occured in-between our weather recording intervals... More about our weather records

Advertising

Koror Weather History for the Previous 24 Hours

Scroll right to see more
 ConditionsComfort  
Time TempWeatherWind HumidityBarometerVisibility
6:50 AM
Sat, Oct 1
77 °FSprinkles. Mostly cloudy.3 mph100%29.80 "Hg12 mi
5:50 AM77 °FSprinkles. Mostly cloudy.No wind100%29.79 "Hg12 mi
4:50 AM79 °FMostly cloudy.3 mph94%29.75 "Hg14 mi
3:50 AM81 °FMostly cloudy.5 mph89%29.75 "Hg14 mi
2:50 AM81 °FMostly cloudy.6 mph89%29.75 "Hg14 mi
1:50 AM81 °FMostly cloudy.6 mph89%29.75 "Hg14 mi
12:50 AM81 °FMostly cloudy.3 mph89%29.76 "Hg14 mi
11:50 PM
Fri, Sep 30
81 °FMostly cloudy.5 mph89%29.77 "Hg14 mi
10:50 PM81 °FOvercast.No wind94%29.77 "Hg14 mi
9:50 PM79 °FMostly cloudy.5 mph100%29.79 "Hg14 mi
8:50 PM79 °FMostly cloudy.6 mph100%29.77 "Hg14 mi
7:50 PM79 °FMostly cloudy.No wind94%29.75 "Hg12 mi
6:50 PM79 °FMostly cloudy.5 mph94%29.75 "Hg14 mi
5:50 PM79 °FMostly cloudy.8 mph94%29.72 "Hg12 mi
4:50 PM79 °FRain showers. Mostly cloudy.10 mph94%29.72 "Hg5 mi
3:50 PM79 °FSprinkles. Mostly cloudy.10 mph94%29.72 "Hg7 mi
2:50 PM81 °FScattered showers. Mostly cloudy.10 mph94%29.70 "Hg12 mi
1:55 PM82 °FScattered showers. Mostly cloudy.12 mph89%29.71 "Hg12 mi
12:50 PM88 °FMostly cloudy.12 mph75%29.74 "Hg14 mi
11:50 AM86 °FMostly cloudy.12 mph79%29.75 "Hg14 mi
10:50 AM84 °FMostly cloudy.13 mph84%29.77 "Hg14 mi
9:50 AM84 °FMostly cloudy.9 mph84%29.79 "Hg14 mi
8:55 AM84 °FMostly cloudy.10 mph84%29.79 "Hg15 mi
Weather by CustomWeather, © 2016

See weather overviewHow to use our weather pages